Osceola, WI

11:08 PM CDT on March 25, 2017 (GMT -0500)
Simenstad Municipal

Weather History for KOEO - May, 2014

Change the Weather History Date:

Sunday, May 11, 2014

  Actual Average (KANE) Record (KANE)
Temperature  
Mean Temperature 59 °F -  
Max Temperature 71 °F 64 °F 77 °F (1998)
Min Temperature 47 °F 44 °F 37 °F (2005)
Degree Days  
Heating Degree Days 6    
Growing Degree Days 9 (Base 50)    
Moisture  
Dew Point 52 °F    
Average Humidity 73    
Maximum Humidity 100    
Minimum Humidity 48    
Precipitation  
Precipitation 0.14 in - - ()
Sea Level Pressure  
Sea Level Pressure 29.87 in    
Wind  
Wind Speed 4 mph (ESE)    
Max Wind Speed 13 mph    
Max Gust Speed -    
Visibility 10 miles    
Events Rain    
Averages and records for this station are not official NWS values.
T = Trace of Precipitation, MM = Missing Value Source: NWS Daily Summary

Daily Weather History Graph

Daily Weather History Graph

Search for Another Location

Airport or City:

Trip Planner

Search our weather history database for the weather conditions in past years. The results will help you decide how hot, cold, wet, or windy it might be!

Date:

Astronomy

May. 11, 2014 Rise Set
Actual Time 5:45 AM CDT 8:29 PM CDT
Civil Twilight 5:11 AM CDT 9:03 PM CDT
Nautical Twilight 4:28 AM CDT 9:46 PM CDT
Astronomical Twilight 3:39 AM CDT 10:36 PM CDT
Moon 5:17 PM CDT (5/11) 4:01 AM CDT (5/11)
Length of Visible Light 15h 51m
Length of Day
14h 43m
Waxing Gibbous, 89% of the Moon is Illuminated
May 11
Waxing Gibbous
May 14
Full
May 21
Last Quarter
May 28
New
Jun 5
First Quarter

Hourly Weather History & Observations

Time (CDT) Temp. Dew Point Humidity Pressure Visibility Wind Dir Wind Speed Gust Speed Precip Events Conditions
12:15 AM 55.0 °F 52.9 °F 92% 29.88 in 10.0 mi SE 4.6 mph - N/A   Scattered Clouds
12:35 AM 53.6 °F 52.0 °F 94% 29.88 in 10.0 mi SE 4.6 mph - N/A   Clear
12:55 AM 53.1 °F 51.4 °F 94% 29.88 in 10.0 mi ESE 4.6 mph - N/A   Clear
1:15 AM 53.2 °F 51.1 °F 92% 29.87 in 10.0 mi ESE 3.5 mph - N/A   Clear
1:35 AM 54.5 °F 50.9 °F 88% 29.87 in 10.0 mi ESE 5.8 mph - N/A   Clear
1:55 AM 54.3 °F 50.9 °F 88% 29.87 in 10.0 mi ESE 5.8 mph - N/A   Scattered Clouds
2:15 AM 53.8 °F 50.9 °F 90% 29.88 in 10.0 mi ESE 5.8 mph - N/A   Scattered Clouds
2:35 AM 54.5 °F 51.1 °F 88% 29.87 in 10.0 mi ESE 6.9 mph - N/A   Mostly Cloudy
2:55 AM 54.7 °F 50.9 °F 87% 29.87 in 10.0 mi SE 5.8 mph - N/A   Mostly Cloudy
3:15 AM 53.1 °F 50.7 °F 92% 29.87 in 10.0 mi ESE 4.6 mph - N/A   Mostly Cloudy
3:35 AM 52.0 °F 50.2 °F 94% 29.87 in 10.0 mi ENE 3.5 mph - N/A   Mostly Cloudy
3:55 AM 52.5 °F 50.0 °F 91% 29.86 in 10.0 mi ESE 3.5 mph - N/A   Scattered Clouds
4:15 AM 50.9 °F 49.8 °F 96% 29.86 in 10.0 mi Calm Calm - N/A   Clear
4:35 AM 49.6 °F 48.4 °F 95% 29.86 in 10.0 mi Calm Calm - N/A   Clear
4:55 AM 48.2 °F 47.5 °F 97% 29.87 in 10.0 mi Calm Calm - N/A   Clear
5:15 AM 50.0 °F 49.1 °F 97% 29.87 in 10.0 mi Calm Calm - N/A   Scattered Clouds
5:35 AM 47.8 °F 47.7 °F 99% 29.87 in 10.0 mi ESE 3.5 mph - N/A   Clear
5:55 AM 47.8 °F 47.8 °F 100% 29.87 in 10.0 mi ESE 3.5 mph - N/A   Clear
6:15 AM 48.2 °F 48.2 °F 100% 29.88 in 10.0 mi East 4.6 mph - N/A   Clear
6:35 AM 50.9 °F 49.8 °F 96% 29.89 in 10.0 mi East 4.6 mph - N/A   Clear
6:55 AM 52.5 °F 50.5 °F 93% 29.89 in 10.0 mi Calm Calm - N/A   Clear
7:15 AM 53.2 °F 50.9 °F 92% 29.89 in 10.0 mi Calm Calm - N/A   Clear
7:35 AM 55.0 °F 52.2 °F 90% 29.88 in 10.0 mi East 4.6 mph - N/A   Clear
7:55 AM 57.0 °F 52.3 °F 84% 29.88 in 10.0 mi East 5.8 mph - N/A   Clear
8:15 AM 58.5 °F 53.4 °F 83% 29.90 in 10.0 mi ESE 4.6 mph - N/A   Clear
8:35 AM 60.1 °F 52.2 °F 75% 29.91 in 10.0 mi SSE 4.6 mph - N/A   Clear
8:55 AM 60.8 °F 51.3 °F 71% 29.91 in 10.0 mi SSE 3.5 mph - N/A   Clear
9:15 AM 61.7 °F 52.3 °F 71% 29.91 in 10.0 mi ESE 4.6 mph - N/A   Clear
9:35 AM 63.1 °F 52.0 °F 67% 29.90 in 10.0 mi SSE 3.5 mph - N/A   Clear
9:55 AM 63.5 °F 51.3 °F 64% 29.90 in 10.0 mi Calm Calm - N/A   Clear
10:15 AM 64.9 °F 52.3 °F 64% 29.91 in 10.0 mi Calm Calm - N/A   Clear
10:35 AM 65.1 °F 52.2 °F 63% 29.91 in 10.0 mi Calm Calm - N/A   Clear
10:55 AM 65.5 °F 51.1 °F 60% 29.91 in 10.0 mi Calm Calm - N/A   Clear
11:15 AM 66.9 °F 51.4 °F 57% 29.92 in 10.0 mi Calm Calm - N/A   Clear
11:35 AM 67.8 °F 51.1 °F 55% 29.91 in 10.0 mi Calm Calm - N/A   Clear
11:55 AM 68.7 °F 52.2 °F 55% 29.91 in 10.0 mi WSW 4.6 mph - N/A   Clear
12:15 PM 68.9 °F 52.7 °F 56% 29.90 in 10.0 mi North 3.5 mph - N/A   Clear
12:35 PM 69.6 °F 51.6 °F 53% 29.89 in 10.0 mi Calm Calm - N/A   Clear
12:55 PM 70.2 °F 52.9 °F 54% 29.88 in 10.0 mi NNW 5.8 mph - N/A   Clear
1:15 PM 70.5 °F 50.7 °F 49% 29.91 in 10.0 mi Calm Calm - N/A   Clear
1:35 PM 70.5 °F 50.2 °F 48% 29.91 in 10.0 mi ESE 6.9 mph - N/A   Scattered Clouds
1:55 PM 69.6 °F 51.1 °F 52% 29.91 in 10.0 mi SE 4.6 mph - N/A   Scattered Clouds
2:15 PM 71.1 °F 52.2 °F 51% 29.91 in 10.0 mi South 12.7 mph - N/A   Mostly Cloudy
2:35 PM 70.3 °F 53.4 °F 55% 29.91 in 10.0 mi SSE 10.4 mph - N/A   Mostly Cloudy
2:55 PM 70.3 °F 53.8 °F 56% 29.91 in 10.0 mi South 9.2 mph - N/A   Mostly Cloudy
3:15 PM 70.2 °F 53.1 °F 55% 29.90 in 10.0 mi South 4.6 mph - N/A   Mostly Cloudy
3:35 PM 70.0 °F 52.0 °F 53% 29.90 in 10.0 mi ESE 8.1 mph - N/A   Overcast
3:55 PM 69.4 °F 53.1 °F 56% 29.90 in 10.0 mi SSE 5.8 mph - N/A   Overcast
4:15 PM 68.7 °F 53.8 °F 59% 29.88 in 10.0 mi Calm Calm - N/A   Overcast
4:35 PM 68.9 °F 54.7 °F 60% 29.88 in 10.0 mi Calm Calm - N/A   Overcast
5:15 PM 69.8 °F 54.9 °F 59% 29.88 in 10.0 mi East 5.8 mph - N/A   Overcast
5:35 PM 70.0 °F 54.7 °F 58% 29.87 in 10.0 mi East 5.8 mph - N/A   Mostly Cloudy
5:55 PM 69.3 °F 53.6 °F 57% 29.86 in 10.0 mi ESE 11.5 mph - N/A   Overcast
6:15 PM 68.7 °F 52.9 °F 57% 29.85 in 10.0 mi East 5.8 mph - N/A   Overcast
6:35 PM 68.2 °F 52.2 °F 56% 29.84 in 10.0 mi ENE 4.6 mph - N/A   Overcast
6:55 PM 68.0 °F 52.5 °F 58% 29.84 in 10.0 mi East 4.6 mph - N/A   Overcast
7:15 PM 67.3 °F 52.9 °F 60% 29.84 in 10.0 mi East 3.5 mph - N/A   Overcast
7:35 PM 66.9 °F 52.9 °F 61% 29.84 in 10.0 mi East 4.6 mph - N/A   Overcast
7:55 PM 66.4 °F 52.7 °F 61% 29.82 in 10.0 mi East 4.6 mph - N/A   Overcast
8:15 PM 65.3 °F 52.2 °F 62% 29.81 in 10.0 mi ENE 6.9 mph - N/A   Mostly Cloudy
8:35 PM 64.9 °F 51.8 °F 62% 29.82 in 10.0 mi East 4.6 mph - N/A   Clear
8:55 PM 63.7 °F 52.9 °F 68% 29.83 in 10.0 mi East 5.8 mph - N/A   Mostly Cloudy
9:15 PM 65.3 °F 52.9 °F 64% 29.83 in 10.0 mi East 6.9 mph - N/A   Overcast
9:35 PM 65.7 °F 53.1 °F 64% 29.81 in 10.0 mi ENE 8.1 mph - N/A   Mostly Cloudy
9:55 PM 63.5 °F 54.5 °F 72% 29.81 in 10.0 mi East 8.1 mph - 0.01 in   Scattered Clouds
10:15 PM 63.9 °F 54.5 °F 72% 29.82 in 10.0 mi East 3.5 mph - N/A   Mostly Cloudy
10:35 PM 62.1 °F 55.6 °F 79% 29.83 in 10.0 mi SE 8.1 mph - N/A Rain Light Rain
10:55 PM 61.9 °F 56.7 °F 83% 29.83 in 10.0 mi ESE 4.6 mph - 0.01 in Rain Rain
11:15 PM 61.7 °F 58.3 °F 89% 29.84 in 10.0 mi SSE 9.2 mph - 0.02 in Rain Light Rain
11:35 PM 61.2 °F 59.0 °F 93% 29.84 in 10.0 mi SE 5.8 mph - 0.06 in Rain Rain
11:55 PM 61.2 °F 59.0 °F 93% 29.86 in 5.0 mi West 4.6 mph - 0.12 in Rain Heavy Rain